• In Moldova, Republic
  • List of Countries
  • For 7 days
  • Water Temperature
  • Satellite Maps
  • Weather Map
  • Weather Widgets
  • user-avatar
    Login

    Hourly Weather Wiktoria

    Today, 24 November, Friday

    Time Temperature Precipitation Wind Pressure Humidity
    00:00 +20°C° 0 mm 4 mps 747 mmHg 62%
    01:00 +19°C° 0 mm 3 mps 747 mmHg 68%
    02:00 +19°C° 0.1 mm 3 mps 747 mmHg 70%
    03:00 +18°C° 0.1 mm 3 mps 747 mmHg 72%
    04:00 +18°C° 0 mm 3 mps 747 mmHg 72%
    05:00 +19°C° 0 mm 3 mps 748 mmHg 69%
    06:00 +20°C° 0 mm 4 mps 748 mmHg 66%
    07:00 +21°C° 0 mm 4 mps 748 mmHg 63%
    08:00 +23°C° 0.1 mm 4 mps 748 mmHg 56%
    09:00 +27°C° 0.1 mm 4 mps 748 mmHg 49%
    10:00 +29°C° 0.1 mm 4 mps 748 mmHg 42%
    11:00 +30°C° 0 mm 3 mps 748 mmHg 37%
    12:00 +32°C° 0 mm 2 mps 748 mmHg 33%
    13:00 +33°C° 0 mm 1 mps 748 mmHg 28%
    14:00 +32°C° 0 mm 2 mps 747 mmHg 30%
    15:00 +32°C° 0 mm 2 mps 747 mmHg 32%
    16:00 +31°C° 0 mm 2 mps 747 mmHg 34%
    17:00 +29°C° 0.1 mm 3 mps 747 mmHg 42%
    18:00 +27°C° 0.1 mm 3 mps 747 mmHg 49%
    19:00 +24°C° 0.1 mm 3 mps 747 mmHg 56%
    20:00 +24°C° 0 mm 3 mps 747 mmHg 58%
    21:00 +22°C° 0 mm 3 mps 748 mmHg 60%
    22:00 +21°C° 0 mm 3 mps 748 mmHg 62%
    23:00 +20°C° 0 mm 3 mps 748 mmHg 63%

    Tomorrow, 25 November, Saturday

    Time Temperature Precipitation Wind Pressure Humidity
    00:00 +20°C° 0 mm 3 mps 747 mmHg 64%
    01:00 +20°C° 0 mm 3 mps 747 mmHg 65%
    02:00 +20°C° 0 mm 3 mps 747 mmHg 64%
    03:00 +20°C° 0 mm 3 mps 747 mmHg 63%
    04:00 +20°C° 0 mm 3 mps 747 mmHg 61%
    05:00 +21°C° 0 mm 3 mps 748 mmHg 58%
    06:00 +22°C° 0 mm 4 mps 748 mmHg 54%
    07:00 +23°C° 0 mm 4 mps 749 mmHg 50%
    08:00 +27°C° 0 mm 4 mps 749 mmHg 45%
    09:00 +29°C° 0 mm 4 mps 749 mmHg 39%
    10:00 +33°C° 0 mm 4 mps 749 mmHg 33%
    11:00 +33°C° 0 mm 4 mps 748 mmHg 30%
    12:00 +34°C° 0 mm 4 mps 748 mmHg 28%
    13:00 +35°C° 0 mm 4 mps 747 mmHg 25%
    14:00 +34°C° 0 mm 4 mps 747 mmHg 28%
    15:00 +33°C° 0 mm 3 mps 747 mmHg 31%
    16:00 +31°C° 0 mm 3 mps 746 mmHg 34%
    17:00 +30°C° 0 mm 3 mps 746 mmHg 37%
    18:00 +28°C° 0 mm 2 mps 746 mmHg 41%
    19:00 +27°C° 0 mm 2 mps 746 mmHg 44%
    20:00 +26°C° 0.3 mm 2 mps 747 mmHg 51%
    21:00 +24°C° 0.3 mm 2 mps 747 mmHg 57%
    22:00 +23°C° 0.3 mm 2 mps 747 mmHg 64%
    23:00 +23°C° 0.4 mm 2 mps 747 mmHg 64%

    Day after tomorrow, 26 November, Sunday

    Time Temperature Precipitation Wind Pressure Humidity
    00:00 +23°C° 0.4 mm 2 mps 747 mmHg 64%
    01:00 +21°C° 0.4 mm 2 mps 747 mmHg 64%
    02:00 +21°C° 0.1 mm 2 mps 746 mmHg 65%
    03:00 +21°C° 0.1 mm 3 mps 746 mmHg 65%
    04:00 +21°C° 0.1 mm 4 mps 746 mmHg 65%
    05:00 +21°C° 0.3 mm 4 mps 746 mmHg 67%
    06:00 +22°C° 0.3 mm 4 mps 747 mmHg 69%
    07:00 +22°C° 0.3 mm 4 mps 747 mmHg 71%
    08:00 +25°C° 0.1 mm 4 mps 747 mmHg 64%
    09:00 +26°C° 0.1 mm 5 mps 747 mmHg 58%
    10:00 +28°C° 0.1 mm 5 mps 747 mmHg 51%
    11:00 +30°C° 0 mm 5 mps 747 mmHg 44%
    12:00 +33°C° 0 mm 5 mps 746 mmHg 38%
    13:00 +35°C° 0 mm 4 mps 746 mmHg 31%
    14:00 +34°C° 0 mm 3 mps 745 mmHg 34%
    15:00 +32°C° 0 mm 2 mps 745 mmHg 37%
    16:00 +31°C° 0 mm 1 mps 744 mmHg 40%
    17:00 +30°C° 0 mm 2 mps 745 mmHg 44%
    18:00 +29°C° 0 mm 3 mps 745 mmHg 49%
    19:00 +27°C° 0 mm 3 mps 746 mmHg 53%
    20:00 +25°C° 0.9 mm 4 mps 746 mmHg 64%
    21:00 +22°C° 0.9 mm 4 mps 747 mmHg 76%
    22:00 +19°C° 0.9 mm 5 mps 748 mmHg 87%
    23:00 +19°C° 0.3 mm 4 mps 747 mmHg 88%

    27 November, Monday

    Time Temperature Precipitation Wind Pressure Humidity
    00:00 +18°C° 0.3 mm 4 mps 747 mmHg 89%
    01:00 +18°C° 0.3 mm 4 mps 747 mmHg 90%
    02:00 +18°C° 0 mm 4 mps 747 mmHg 91%
    03:00 +17°C° 0 mm 3 mps 747 mmHg 92%
    04:00 +17°C° 0 mm 3 mps 747 mmHg 93%
    05:00 +18°C° 0 mm 3 mps 748 mmHg 90%
    06:00 +19°C° 0 mm 3 mps 748 mmHg 86%
    07:00 +20°C° 0 mm 3 mps 748 mmHg 82%
    08:00 +22°C° 0 mm 3 mps 748 mmHg 74%
    09:00 +25°C° 0 mm 3 mps 749 mmHg 66%
    10:00 +27°C° 0 mm 3 mps 749 mmHg 57%
    11:00 +28°C° 0 mm 3 mps 748 mmHg 51%
    12:00 +29°C° 0 mm 3 mps 748 mmHg 46%
    13:00 +30°C° 0 mm 3 mps 748 mmHg 40%
    14:00 +30°C° 0 mm 4 mps 747 mmHg 39%
    15:00 +30°C° 0 mm 4 mps 747 mmHg 39%
    16:00 +30°C° 0 mm 5 mps 747 mmHg 38%
    17:00 +28°C° 0 mm 5 mps 747 mmHg 44%
    18:00 +26°C° 0 mm 5 mps 748 mmHg 50%
    19:00 +23°C° 0 mm 6 mps 748 mmHg 56%
    20:00 +22°C° 0 mm 5 mps 748 mmHg 63%
    21:00 +20°C° 0 mm 5 mps 749 mmHg 70%
    22:00 +17°C° 0 mm 5 mps 749 mmHg 77%
    23:00 +18°C° 0 mm 4 mps 749 mmHg 81%

    28 November, Tuesday

    Time Temperature Precipitation Wind Pressure Humidity
    00:00 +17°C° 0 mm 4 mps 749 mmHg 85%
    01:00 +16°C° 0 mm 3 mps 749 mmHg 88%
    02:00 +16°C° 0 mm 3 mps 749 mmHg 90%
    03:00 +16°C° 0 mm 3 mps 749 mmHg 92%
    04:00 +14°C° 0 mm 3 mps 749 mmHg 94%
    05:00 +17°C° 0 mm 2 mps 749 mmHg 87%
    06:00 +18°C° 0 mm 2 mps 750 mmHg 81%
    07:00 +20°C° 0 mm 2 mps 750 mmHg 75%
    08:00 +24°C° 0 mm 2 mps 750 mmHg 64%
    09:00 +27°C° 0 mm 1 mps 750 mmHg 53%
    10:00 +30°C° 0 mm 1 mps 750 mmHg 42%
    11:00 +31°C° 0 mm 1 mps 750 mmHg 36%
    12:00 +32°C° 0 mm 2 mps 749 mmHg 31%
    13:00 +34°C° 0 mm 2 mps 749 mmHg 25%
    14:00 +34°C° 0 mm 2 mps 748 mmHg 24%
    15:00 +34°C° 0 mm 2 mps 748 mmHg 23%
    16:00 +35°C° 0 mm 2 mps 748 mmHg 22%
    17:00 +32°C° 0 mm 2 mps 748 mmHg 27%
    18:00 +30°C° 0 mm 2 mps 749 mmHg 32%
    19:00 +28°C° 0 mm 2 mps 749 mmHg 38%
    20:00 +26°C° 0 mm 2 mps 749 mmHg 45%
    21:00 +24°C° 0 mm 3 mps 749 mmHg 52%
    22:00 +22°C° 0 mm 3 mps 750 mmHg 59%
    23:00 +21°C° 0 mm 3 mps 750 mmHg 63%

    29 November, Wednesday

    Time Temperature Precipitation Wind Pressure Humidity
    00:00 +20°C° 0 mm 2 mps 749 mmHg 67%
    01:00 +19°C° 0 mm 2 mps 749 mmHg 71%
    02:00 +19°C° 0 mm 2 mps 749 mmHg 71%
    03:00 +19°C° 0 mm 2 mps 749 mmHg 72%
    04:00 +18°C° 0 mm 2 mps 750 mmHg 72%
    05:00 +20°C° 0 mm 3 mps 750 mmHg 68%
    06:00 +22°C° 0 mm 3 mps 750 mmHg 64%
    07:00 +24°C° 0 mm 3 mps 750 mmHg 61%
    08:00 +27°C° 0 mm 3 mps 750 mmHg 53%
    09:00 +30°C° 0 mm 3 mps 750 mmHg 45%
    10:00 +34°C° 0 mm 3 mps 750 mmHg 36%
    11:00 +35°C° 0 mm 2 mps 749 mmHg 32%
    12:00 +37°C° 0 mm 2 mps 749 mmHg 27%
    13:00 +38°C° 0 mm 2 mps 748 mmHg 23%
    14:00 +38°C° 0 mm 2 mps 748 mmHg 23%
    15:00 +37°C° 0 mm 2 mps 747 mmHg 23%
    16:00 +37°C° 0 mm 2 mps 747 mmHg 24%
    17:00 +35°C° 0 mm 2 mps 747 mmHg 27%
    18:00 +34°C° 0 mm 2 mps 747 mmHg 30%
    19:00 +31°C° 0 mm 2 mps 747 mmHg 34%
    20:00 +30°C° 0 mm 2 mps 748 mmHg 35%
    21:00 +29°C° 0 mm 2 mps 748 mmHg 36%
    22:00 +29°C° 0 mm 2 mps 748 mmHg 37%
    23:00 +28°C° 0 mm 2 mps 748 mmHg 40%
    Show more